Location: Observatoire
(46.1952°N, 5.3391°E)
Time: 02:19:02
(UTC+01:00)

Altair - Pass Details

Date: 23 February 2026
Orbit: 1502 x 1682 km, 47.2° (Epoch: 10 March)

Event Time Altitude Azimuth Distance (km) Brightness Sun altitude
Rises 01:52:30 0° 189° (S) 4,628 - -51.5°
Reaches altitude 10° 01:56:23 10° 175° (S) 3,643 - -51.2°
Maximum altitude 02:02:51 22° 129° (SE) 2,822 - -50.7°
Exits shadow 02:07:33 15° 93° (E) 3,300 9.4 -50.3°
Drops below altitude 10° 02:09:21 10° 84° (E) 3,676 9.7 -50.1°
Sets 02:13:16 0° 70° (ENE) 4,680 10.5 -49.8°
